TimeCDT,TemperatureF,Dew PointF,Humidity,Sea Level PressureIn,VisibilityMPH,Wind Direction,Wind SpeedMPH,Gust SpeedMPH,PrecipitationIn,Events,Conditions,WindDirDegrees,DateUTC
12:21 AM,64.4,62.6,94,29.96,10.0,SSW,8.1,-,N/A,,Partly Cloudy,200,2013-06-16 05:21:00
12:53 AM,64.9,63.0,93,29.94,10.0,SSW,8.1,-,N/A,,Clear,200,2013-06-16 05:53:00
1:53 AM,64.9,63.0,93,29.93,10.0,SSW,4.6,-,N/A,,Partly Cloudy,210,2013-06-16 06:53:00
2:53 AM,64.0,62.1,93,29.94,4.0,SSW,5.8,-,N/A,,Clear,210,2013-06-16 07:53:00
3:00 AM,64.4,62.6,94,29.96,3.0,SSW,4.6,-,N/A,,Scattered Clouds,210,2013-06-16 08:00:00
3:20 AM,62.6,62.6,100,29.96,1.8,Calm,Calm,-,N/A,,Partly Cloudy,0,2013-06-16 08:20:00
3:36 AM,62.6,60.8,94,29.96,3.0,Calm,Calm,-,N/A,,Clear,0,2013-06-16 08:36:00
3:53 AM,63.0,61.0,93,29.94,5.0,Calm,Calm,-,N/A,,Clear,0,2013-06-16 08:53:00
4:25 AM,62.6,60.8,94,29.95,1.8,Calm,Calm,-,N/A,,Clear,0,2013-06-16 09:25:00
4:36 AM,62.6,60.8,94,29.95,3.0,NNW,3.5,-,N/A,,Clear,330,2013-06-16 09:36:00
4:41 AM,62.6,60.8,94,29.95,1.8,North,3.5,-,N/A,,Partly Cloudy,360,2013-06-16 09:41:00
4:45 AM,62.6,60.8,94,29.95,0.8,Calm,Calm,-,N/A,,Mist,0,2013-06-16 09:45:00
4:53 AM,62.1,60.1,93,29.94,0.8,Calm,Calm,-,N/A,,Mist,0,2013-06-16 09:53:00
5:53 AM,62.1,60.1,93,29.95,0.2,NNE,3.5,-,N/A,Fog,Fog,20,2013-06-16 10:53:00
6:53 AM,63.0,62.1,97,29.96,0.2,Calm,Calm,-,N/A,Fog,Fog,0,2013-06-16 11:53:00
7:48 AM,64.4,64.4,100,29.97,2.0,Calm,Calm,-,N/A,,Overcast,0,2013-06-16 12:48:00
7:53 AM,64.9,64.0,97,29.96,3.0,Calm,Calm,-,N/A,,Overcast,0,2013-06-16 12:53:00
7:57 AM,64.4,64.4,100,29.97,1.8,Calm,Calm,-,N/A,,Overcast,0,2013-06-16 12:57:00
8:11 AM,66.2,64.4,94,29.98,3.0,Calm,Calm,-,N/A,,Overcast,0,2013-06-16 13:11:00
8:53 AM,66.0,64.9,96,29.98,7.0,Calm,Calm,-,N/A,,Overcast,0,2013-06-16 13:53:00
9:53 AM,68.0,64.9,90,29.98,6.0,North,5.8,-,N/A,,Overcast,10,2013-06-16 14:53:00
10:42 AM,71.6,66.2,83,29.99,9.0,NNE,8.1,-,N/A,,Overcast,30,2013-06-16 15:42:00
10:53 AM,71.1,66.0,84,29.97,10.0,Variable,4.6,-,N/A,,Overcast,0,2013-06-16 15:53:00
11:29 AM,71.6,66.2,83,29.99,10.0,NE,6.9,-,N/A,,Overcast,50,2013-06-16 16:29:00
11:53 AM,72.0,66.9,84,29.98,10.0,ENE,3.5,-,N/A,,Overcast,70,2013-06-16 16:53:00
12:53 PM,75.9,68.0,76,29.98,10.0,Variable,5.8,-,N/A,,Mostly Cloudy,0,2013-06-16 17:53:00
1:03 PM,77.0,68.0,74,29.99,10.0,ENE,6.9,-,N/A,,Scattered Clouds,70,2013-06-16 18:03:00
1:23 PM,75.2,66.2,73,29.99,10.0,NE,5.8,-,N/A,,Mostly Cloudy,40,2013-06-16 18:23:00
1:53 PM,78.1,68.0,71,29.97,10.0,ESE,4.6,-,N/A,,Scattered Clouds,120,2013-06-16 18:53:00
2:53 PM,81.0,68.0,65,29.97,10.0,NNE,3.5,-,N/A,,Partly Cloudy,30,2013-06-16 19:53:00
3:53 PM,80.1,66.9,64,29.96,10.0,Calm,Calm,-,N/A,,Scattered Clouds,0,2013-06-16 20:53:00
4:53 PM,81.0,64.9,58,29.96,10.0,Calm,Calm,-,N/A,,Mostly Cloudy,0,2013-06-16 21:53:00
5:53 PM,79.0,64.9,62,29.94,10.0,Calm,Calm,-,N/A,,Clear,0,2013-06-16 22:53:00
6:53 PM,80.1,66.9,64,29.93,10.0,Calm,Calm,-,N/A,,Clear,0,2013-06-16 23:53:00
7:53 PM,79.0,66.0,64,29.94,10.0,Calm,Calm,-,N/A,,Clear,0,2013-06-17 00:53:00
8:53 PM,75.0,66.0,73,29.95,10.0,Calm,Calm,-,N/A,,Clear,0,2013-06-17 01:53:00
9:53 PM,72.0,66.9,84,29.97,10.0,SSW,3.5,-,N/A,,Clear,210,2013-06-17 02:53:00
10:53 PM,70.0,66.0,87,29.98,10.0,SSW,5.8,-,N/A,,Clear,210,2013-06-17 03:53:00
11:53 PM,69.1,66.0,90,29.96,10.0,SW,3.5,-,N/A,,Clear,220,2013-06-17 04:53:00